This demonstration page uses our WeatherBlox Daily Observations layout. Learn more.

Left ArrowRight Arrow

40.92945, -100.16068

Hourly Observations for June 17, 2019

Temp ( °F °C ) Dew Point ( °F °C ) Humidity (%) Winds ( mph kmh ) Pressure ( in mb ) Visibility ( mi km ) Precip ( " mm )
12:15 am 00:15 Cloudy 67 19.3 58 14.5 74 74 SSW 3 6 29.91 1013 10 16 0.00 0.00
12:35 am 00:35 Cloudy 66 19 58 14.7 76 76 WNW 5 7 29.91 1013 7 11 0.00 0.00
12:55 am 00:55 Cloudy with Light Rain 64 18 59 15.2 84 84 NW 6 9 29.92 1013 10 16 0.00 0.00
1:15 am 01:15 Cloudy with Light Rain 64 17.6 60 15.5 88 88 NNW 7 11 29.92 1013 10 16 0.00 0.00
1:35 am 01:35 Cloudy with Light Rain 63 17.1 60 15.8 92 92 NNW 6 9 29.93 1013 10 16 0.01 0.25
1:55 am 01:55 Cloudy with Light Rain 63 17 61 16 94 94 NW 3 6 29.93 1013 10 16 0.02 0.51
2:15 am 02:15 Cloudy with Light Rain 62 16.7 61 16 96 96 NNW 5 7 29.93 1014 10 16 0.01 0.25
2:35 am 02:35 Mostly Cloudy with Light Rain 62 16.6 61 16 96 96 NNW 5 7 29.93 1014 10 16 0.01 0.25
2:55 am 02:55 Partly Cloudy 62 16.5 60 15.8 96 96 Calm 29.93 1014 10 16 0.01 0.25
3:15 am 03:15 Partly Cloudy 62 16.5 61 16 97 97 Calm 29.93 1014 10 16 0.00 0.00
3:35 am 03:35 Clear 61 16.3 61 16 98 98 W 3 6 29.92 1013 10 16 0.00 0.00
3:55 am 03:55 Clear 60 15.8 60 15.6 99 99 Calm 29.92 1013 7 11 0.00 0.00
4:15 am 04:15 Clear 61 15.9 61 15.9 100 100 Calm 29.92 1013 7 11 0.00 0.00
4:35 am 04:35 Clear 60 15.6 60 15.6 100 100 W 7 11 29.92 1013 7 11 0.00 0.00
4:55 am 04:55 Mostly Cloudy 60 15.8 60 15.6 99 99 WNW 5 7 29.93 1014 7 11 0.00 0.00
5:15 am 05:15 Mostly Cloudy 60 15.6 60 15.5 99 99 WNW 6 9 29.93 1014 7 11 0.00 0.00
5:35 am 05:35 Partly Cloudy with Mist and Fog 60 15.4 59 15.2 99 99 WNW 7 11 29.93 1014 5 8 0.00 0.00
5:55 am 05:55 Partly Cloudy with Mist and Fog 60 15.3 60 15.3 100 100 WNW 5 7 29.94 1014 5 8 0.00 0.00
6:15 am 06:15 Partly Cloudy with Mist and Fog 59 15.2 59 15.1 99 99 W 7 11 29.94 1014 4 6 0.00 0.00
6:35 am 06:35 Mostly Cloudy with Mist and Fog 60 15.5 59 15.2 98 98 WNW 5 7 29.95 1014 5 8 0.00 0.00
6:55 am 06:55 Mostly Cloudy with Mist and Fog 60 15.7 60 15.5 99 99 W 5 7 29.96 1015 5 8 0.00 0.00
7:15 am 07:15 Partly Cloudy 62 16.5 61 15.9 96 96 W 3 6 29.96 1015 7 11 0.00 0.00
7:35 am 07:35 Mostly Cloudy 62 16.5 61 15.9 96 96 Calm 29.96 1015 10 16 0.00 0.00
7:55 am 07:55 Cloudy 62 16.6 61 15.9 96 96 W 3 6 29.96 1015 10 16 0.00 0.00
8:15 am 08:15 Mostly Cloudy 62 16.7 61 16.2 97 97 Calm 29.97 1015 10 16 0.00 0.00
8:35 am 08:35 Mostly Cloudy 63 17.3 61 16.2 93 93 Calm 29.97 1015 10 16 0.00 0.00
8:55 am 08:55 Mostly Cloudy 64 17.5 61 16.3 93 93 WNW 5 7 29.96 1015 10 16 0.00 0.00
9:15 am 09:15 Partly Cloudy 64 17.8 62 16.5 92 92 WNW 3 6 29.96 1015 10 16 0.00 0.00
9:35 am 09:35 Mostly Cloudy 65 18.1 61 16.3 89 89 NW 6 9 29.96 1015 10 16 0.00 0.00
9:55 am 09:55 Cloudy 64 18 61 16.1 89 89 NNW 5 7 29.96 1015 10 16 0.00 0.00
10:15 am 10:15 Cloudy 65 18.1 62 16.4 90 90 NNW 3 6 29.96 1015 10 16 0.00 0.00
10:35 am 10:35 Cloudy 65 18.6 61 16.2 86 86 WNW 6 9 29.96 1015 10 16 0.00 0.00
10:55 am 10:55 Cloudy 66 19.1 62 16.4 84 84 NW 7 11 29.96 1015 10 16 0.00 0.00
11:15 am 11:15 Mostly Cloudy 67 19.6 61 16.2 81 81 NW 6 9 29.95 1014 10 16 0.00 0.00
11:35 am 11:35 Mostly Cloudy 69 20.5 62 16.5 78 78 NNW 5 7 29.94 1014 10 16 0.00 0.00
11:55 am 11:55 Mostly Cloudy 70 20.9 61 16 74 74 WNW 3 6 29.94 1014 10 16 0.00 0.00
12:15 pm 12:15 Cloudy 69 20.7 60 15.7 73 73 Calm 29.95 1014 10 16 0.00 0.00
12:35 pm 12:35 Cloudy 70 21.2 61 16 72 72 Calm 29.94 1014 10 16 0.00 0.00
12:55 pm 12:55 Cloudy 71 21.9 61 16.1 70 70 Calm 29.94 1014 10 16 0.00 0.00
1:15 pm 13:15 Mostly Cloudy 72 22.3 60 15.8 67 67 N 3 6 29.92 1013 10 16 0.00 0.00
1:35 pm 13:35 Mostly Cloudy 73 23 62 16.4 66 66 Calm 29.92 1013 10 16 0.00 0.00
1:55 pm 13:55 Cloudy 74 23.5 62 16.5 65 65 E 3 6 29.91 1013 10 16 0.00 0.00
2:15 pm 14:15 Cloudy 74 23.6 61 16.3 64 64 E 3 6 29.90 1013 10 16 0.00 0.00
2:35 pm 14:35 Cloudy 74 23.6 60 15.8 62 62 Calm 29.90 1013 10 16 0.00 0.00
2:55 pm 14:55 Cloudy 76 24.7 62 16.5 60 60 Calm 29.88 1012 10 16 0.00 0.00
3:15 pm 15:15 Mostly Cloudy 77 25.1 60 15.7 56 56 E 5 7 29.87 1011 10 16 0.00 0.00
3:35 pm 15:35 Partly Cloudy 77 25 59 14.9 54 54 Calm 29.86 1011 10 16 0.00 0.00
3:55 pm 15:55 Sunny 79 26 59 14.9 50 50 Calm 29.84 1011 10 16 0.00 0.00
4:15 pm 16:15 Mostly Cloudy 80 26.4 59 15 50 50 SSE 3 6 29.83 1010 10 16 0.00 0.00
4:35 pm 16:35 Mostly Cloudy 78 25.5 58 14.2 50 50 Calm 29.84 1010 10 16 0.00 0.00
4:55 pm 16:55 Partly Cloudy 77 24.9 59 15.1 55 55 S 5 7 29.84 1011 10 16 0.00 0.00
5:15 pm 17:15 Mostly Cloudy 81 27 60 15.4 49 49 S 8 13 29.81 1010 10 16 0.00 0.00
5:35 pm 17:35 Mostly Cloudy 79 25.9 60 15.6 53 53 S 9 15 29.81 1010 10 16 0.00 0.00
5:55 pm 17:55 Mostly Cloudy 77 25.1 60 15.6 56 56 S 5 7 29.82 1010 10 16 0.00 0.00
6:15 pm 18:15 Cloudy 77 25 59 15.2 55 55 S 7 11 29.82 1010 10 16 0.00 0.00
6:35 pm 18:35 Cloudy 76 24.6 59 15 55 55 S 6 9 29.81 1010 10 16 0.00 0.00
6:55 pm 18:55 Cloudy 75 23.8 60 15.4 59 59 S 8 13 29.81 1009 10 16 0.00 0.00
7:15 pm 19:15 Cloudy 74 23.4 61 15.9 63 63 S 7 11 29.81 1010 10 16 0.00 0.00
7:35 pm 19:35 Mostly Cloudy 73 23 61 16.1 65 65 S 5 7 29.82 1010 10 16 0.00 0.00
7:55 pm 19:55 Mostly Cloudy 73 22.7 61 16.3 67 67 Calm 29.84 1010 10 16 0.00 0.00
8:15 pm 20:15 Cloudy 69 20.8 61 15.9 74 74 N 17 28 29.89 1012 10 16 0.00 0.00
8:35 pm 20:35 Cloudy with Heavy Rain 64 17.7 62 16.5 93 93 NNW 18 30 29.95 1014 7 11 0.04 1.02
8:55 pm 20:55 Cloudy with Heavy Rain 62 16.6 60 15.8 95 95 NNE 16 26 29.96 1015 3 5 0.34 8.64
9:15 pm 21:15 Cloudy with Rain 62 16.5 61 16 97 97 N 8 13 29.98 1015 7 11 0.03 0.76
9:35 pm 21:35 Cloudy with Rain 61 16.2 61 15.9 98 98 NE 9 15 29.99 1015 5 8 0.08 2.03
9:55 pm 21:55 Cloudy with Rain 61 16.3 61 16 98 98 NE 6 9 29.99 1016 7 11 0.12 3.05
10:15 pm 22:15 Cloudy with Light Rain 61 16.3 60 15.7 96 96 Calm 30.00 1016 10 16 0.03 0.76
10:35 pm 22:35 Cloudy with Rain 61 16.1 60 15.6 97 97 E 3 6 30.01 1016 7 11 0.09 2.29
10:55 pm 22:55 Cloudy with Rain 61 16 60 15.7 98 98 SE 3 6 30.01 1016 7 11 0.12 3.05
11:10 pm 23:10 Cloudy with Rain 61 16 60 15.7 98 98 SSE 5 7 30.01 1016 7 11 0.03 0.76
11:35 pm 23:35 Cloudy with Light Rain 61 16 60 15.8 99 99 SSE 5 7 30.00 1016 10 16 0.06 1.52
11:55 pm 23:55 Cloudy with Rain 61 16 61 16 100 100 S 5 7 30.00 1016 7 11 0.08 2.03

Powered by AerisWeather